Wind_Speed
37 40 42 45 48 50 52 54 55 56 58 59 59 59 57 57 56 54 53 52 52 52 52 52 52 52 52 51 51 51 51 50 49 48 48 47 45 43 41 40 40 39 39
31 34 36 38 41 44 47 50 52 53 55 57 57 57 57 56 56 55 55 54 53 53 54 53 53 54 54 54 52 53 54 53 53 51 49 47 46 45 43 42 41 41 41
23 26 29 31 33 36 40 44 46 48 50 53 55 55 54 53 52 52 52 53 54 53 52 53 53 53 53 54 54 54 54 53 52 52 51 49 46 45 45 44 44 44 44
18 21 23 26 28 29 32 34 38 42 45 48 51 53 53 51 49 49 49 50 51 52 53 51 51 53 52 52 53 54 53 52 51 51 50 49 48 48 46 46 46 46 46
13 15 18 21 23 25 28 29 32 35 38 41 44 47 48 49 49 48 47 48 50 51 53 53 51 51 50 50 50 52 53 53 52 51 51 50 49 48 48 48 48 48 48
10 10 11 15 18 21 24 26 29 31 33 34 38 42 44 45 47 47 47 47 49 50 51 51 51 51 50 50 50 50 53 54 54 53 53 52 51 50 50 50 49 49 48
5 5 6 8 11 15 18 21 24 27 28 30 33 36 38 39 41 43 44 46 47 48 49 50 51 51 50 50 50 51 50 52 53 53 53 53 52 51 50 49 49 48 48
2 2 2 3 6 9 12 15 18 21 23 26 28 30 32 35 38 40 41 43 44 46 47 50 50 50 50 50 51 51 51 51 52 52 52 51 51 50 50 49 49 49 48
4 3 2 1 2 5 7 9 11 14 18 20 23 25 27 30 33 37 38 39 41 42 45 47 48 48 50 51 51 51 51 51 52 53 53 52 53 53 52 52 51 50 49
4 4 3 2 2 2 4 5 7 8 11 15 18 21 23 25 28 31 33 35 36 37 39 42 44 45 47 49 50 50 50 50 50 51 52 53 54 54 54 54 52 51 51
5 4 3 2 1 2 2 3 5 7 9 12 15 19 21 23 26 28 31 33 34 34 37 39 41 42 44 46 48 49 50 51 50 51 52 53 54 54 54 53 53 53 51
6 5 4 3 1 0 1 3 4 6 8 11 14 17 19 22 25 27 29 30 32 34 36 38 40 42 43 44 45 47 49 49 50 49 50 51 52 53 52 52 54 54 53
7 6 5 3 2 2 3 4 5 7 9 11 14 17 18 21 24 26 28 29 31 34 36 37 39 42 43 45 46 47 47 48 49 48 49 49 50 50 51 52 53 54 54
8 7 6 5 5 5 5 6 7 8 10 11 14 16 19 21 24 27 29 31 33 35 37 39 41 43 44 45 46 48 48 49 50 50 50 50 50 50 51 53 54 54 55
8 8 8 8 8 9 9 10 11 12 14 15 16 19 21 24 26 28 31 33 36 38 40 41 43 45 47 48 48 48 50 50 50 51 52 52 52 53 53 54 55 56 57
10 10 10 11 11 12 13 13 15 16 18 19 21 22 24 26 29 31 33 36 38 40 41 43 45 46 48 50 50 51 52 52 53 53 53 54 54 56 57 58 58 59 59
12 13 14 14 14 15 17 18 19 21 23 25 26 27 29 31 33 35 37 39 41 43 45 47 48 50 51 53 54 55 56 56 57 57 57 58 58 59 60 61 62 62 62
15 16 17 17 18 19 20 21 22 24 26 28 30 31 33 35 37 39 41 42 44 46 48 49 51 53 55 56 58 58 59 59 60 60 60 61 62 62 62 62 62 61 61
18 18 19 20 20 21 23 25 27 28 30 31 33 35 36 38 40 41 43 45 46 47 49 51 53 56 57 59 61 62 62 63 62 62 62 63 63 63 62 62 61 61 61
20 21 22 23 24 25 27 29 31 33 34 35 37 39 40 42 43 44 45 47 49 50 52 53 56 58 60 62 64 66 66 66 66 65 64 64 64 63 63 62 62 61 60
23 24 25 26 28 29 31 33 35 36 38 39 41 43 44 46 47 48 50 51 53 54 55 56 58 59 61 63 64 65 66 66 66 66 65 64 64 63 62 63 62 60 59
26 27 28 30 32 33 35 36 38 40 42 43 45 47 49 50 51 52 53 55 56 57 58 59 59 60 60 61 61 63 64 64 64 63 63 63 63 63 63 61 61 60 59
29 31 32 34 36 37 38 40 41 44 46 48 50 51 52 54 54 55 56 56 56 57 58 58 58 59 59 59 59 58 60 60 60 60 61 62 62 63 62 61 61 61 60
33 34 35 37 38 40 42 44 46 48 50 51 52 54 54 55 55 56 56 56 56 56 56 56 57 56 56 56 57 57 57 57 57 57 58 59 60 61 62 61 60 60 60
35 37 38 40 41 43 45 47 49 51 52 53 54 55 55 55 54 55 55 55 55 55 54 53 53 53 52 52 53 53 54 55 55 55 54 55 57 58 59 59 59 59 59
38 39 41 43 44 46 47 49 51 52 53 54 54 54 54 53 54 54 53 54 54 53 53 52 50 49 49 48 49 49 50 52 53 52 51 52 53 54 55 56 57 57 56
Wind_Direction
257 255 253 251 249 247 245 243 243 241 239 237 236 236 236 236 235 236 236 236 237 238 240 242 242 243 243 244 246 247 248 250 251 252 253 253 254 256 257 260 261 262 263
258 255 253 251 250 248 246 244 243 242 239 237 236 236 235 235 235 236 236 236 237 238 239 241 242 243 243 244 245 247 248 250 251 252 253 254 255 256 258 259 260 262 264
260 254 250 248 248 248 246 244 242 240 238 236 235 236 235 235 235 236 236 236 236 237 239 241 242 243 245 246 246 247 249 250 252 253 255 255 257 257 257 259 260 261 262
268 263 254 248 245 244 242 242 241 239 238 238 237 236 236 235 235 235 236 236 236 237 238 240 241 244 246 247 248 248 249 250 252 253 254 255 257 258 259 259 260 261 263
284 273 259 249 245 243 241 240 239 237 237 237 237 236 234 234 235 235 234 235 235 236 239 240 242 245 248 248 248 248 249 252 253 255 256 257 258 259 260 261 261 262 263
292 285 266 250 246 244 242 242 239 238 236 235 235 234 233 234 235 235 236 237 237 238 239 240 243 245 247 248 249 250 252 253 254 255 255 257 258 259 260 262 262 262 263
302 301 280 255 243 242 242 241 236 236 236 236 234 233 233 233 234 235 237 239 240 240 239 239 242 244 245 246 247 248 251 252 253 253 255 257 259 258 258 260 262 262 263
351 351 336 270 243 236 236 235 233 232 234 235 234 233 235 235 234 234 236 238 240 241 241 242 243 244 245 245 247 249 251 253 253 253 254 255 255 255 256 257 259 261 263
14 16 22 31 227 231 231 226 229 232 235 236 235 234 234 237 236 236 237 239 240 242 244 245 243 244 246 247 249 251 252 253 253 253 253 253 254 256 256 257 259 261 263
17 19 32 68 116 178 197 206 217 232 238 237 238 237 237 238 238 239 239 241 242 244 247 247 246 246 248 248 250 251 252 252 253 254 254 254 255 255 256 257 258 261 263
33 31 39 61 123 146 171 208 234 244 246 241 241 241 241 241 242 244 244 244 245 246 247 250 250 250 251 252 252 252 252 252 254 255 256 256 256 256 256 258 258 260 262
23 24 17 11 357 217 238 244 251 250 251 247 247 244 243 245 246 248 249 247 248 250 252 253 253 252 254 254 254 254 254 254 255 256 257 257 257 257 258 258 258 259 260
10 14 17 358 331 315 289 276 264 263 263 261 258 253 250 249 251 252 252 252 254 256 255 255 255 255 257 257 256 256 256 256 256 257 259 258 257 257 257 258 259 259 261
359 360 358 345 328 312 299 289 287 284 278 275 269 264 261 259 257 256 256 256 258 259 258 257 258 258 257 258 259 258 258 258 258 258 259 258 258 257 258 259 259 260 261
345 340 335 326 318 312 303 297 295 290 288 286 282 277 274 270 268 267 266 264 263 263 263 262 262 261 261 260 260 261 261 260 259 259 259 259 259 259 259 259 260 261 262
336 329 322 319 314 310 305 300 299 296 292 291 288 286 283 279 276 274 271 269 268 267 266 265 264 264 264 264 263 263 261 260 260 260 259 259 259 259 259 259 261 262 261
321 322 319 317 315 311 306 303 302 299 296 295 293 290 287 284 280 278 276 275 274 273 270 268 266 266 266 266 266 265 263 262 261 261 260 259 259 259 259 259 260 260 260
312 313 313 313 311 310 307 305 303 301 300 298 295 293 291 289 287 283 280 279 276 275 273 270 269 268 267 267 267 266 265 263 262 262 261 261 261 261 260 259 259 259 259
310 311 310 308 308 308 306 305 304 303 302 301 300 297 295 292 290 287 285 282 280 279 276 274 272 271 269 268 267 266 265 264 263 263 262 261 261 261 260 259 258 257 256
307 308 309 309 308 307 307 306 305 304 303 302 300 299 298 296 294 291 289 286 284 282 280 277 276 274 272 270 268 267 266 265 263 262 261 260 260 259 258 257 257 256 255
305 306 307 307 307 307 307 306 305 305 304 303 302 300 299 297 295 293 290 288 287 284 282 279 278 277 275 273 270 269 267 265 264 262 261 259 258 257 256 256 256 255 253
303 304 305 305 305 305 306 306 306 306 305 304 302 301 300 299 297 295 293 291 289 286 284 282 280 279 277 275 273 270 268 265 263 261 259 258 256 255 254 254 253 251 251
302 302 303 304 305 305 306 306 306 307 306 305 304 303 301 300 299 297 296 294 292 290 288 285 283 281 279 277 274 272 269 267 265 262 259 257 255 254 254 253 252 250 249
302 302 303 304 305 306 306 307 307 307 307 306 305 304 303 302 301 300 298 297 295 293 291 289 286 284 281 278 275 273 270 268 265 263 261 258 255 254 254 252 251 249 249
303 303 303 304 305 306 307 307 308 308 309 308 307 306 306 305 304 302 301 299 298 296 294 292 289 286 283 280 277 274 271 268 265 263 261 259 256 254 253 252 250 248 247
304 304 304 305 305 307 308 309 309 310 310 310 309 308 307 307 306 305 304 302 301 298 297 295 292 289 286 283 279 276 272 268 265 262 260 258 256 254 253 251 249 248 247
Height
5645 5646 5648 5651 5655 5659 5663 5668 5673 5679 5685 5692 5699 5705 5711 5717 5722 5728 5732 5736 5741 5745 5749 5753 5757 5760 5763 5767 5771 5773 5776 5779 5781 5784 5786 5789 5791 5793 5795 5796 5798 5799 5800
5637 5637 5639 5641 5644 5648 5652 5657 5662 5667 5673 5680 5687 5693 5700 5705 5712 5716 5721 5726 5731 5736 5740 5743 5747 5750 5754 5757 5760 5763 5766 5769 5772 5774 5776 5779 5782 5784 5786 5787 5789 5790 5791
5630 5630 5631 5632 5635 5638 5642 5646 5651 5657 5662 5669 5675 5681 5688 5694 5701 5706 5711 5716 5721 5725 5729 5733 5737 5740 5743 5747 5751 5753 5756 5759 5762 5764 5767 5770 5772 5774 5776 5777 5779 5780 5781
5625 5624 5624 5626 5628 5631 5634 5638 5642 5647 5653 5658 5664 5671 5678 5685 5691 5696 5701 5705 5710 5715 5719 5723 5727 5730 5733 5737 5740 5743 5746 5748 5751 5753 5756 5760 5762 5763 5765 5767 5769 5770 5771
5621 5620 5619 5620 5622 5625 5627 5631 5635 5639 5645 5650 5656 5662 5669 5675 5681 5686 5691 5696 5700 5705 5709 5713 5717 5720 5723 5727 5730 5732 5735 5738 5741 5743 5746 5748 5750 5752 5754 5756 5758 5759 5760
5618 5617 5616 5616 5618 5620 5622 5625 5629 5633 5638 5643 5648 5654 5661 5666 5672 5677 5682 5686 5691 5695 5699 5703 5707 5710 5713 5717 5720 5722 5725 5727 5730 5732 5735 5737 5739 5742 5743 5744 5746 5747 5749
5618 5616 5615 5614 5615 5617 5619 5622 5625 5628 5633 5637 5642 5648 5653 5658 5663 5668 5673 5678 5682 5686 5690 5693 5696 5700 5703 5706 5709 5711 5714 5716 5719 5721 5724 5726 5728 5730 5732 5733 5734 5736 5738
5618 5617 5615 5614 5615 5616 5617 5619 5622 5625 5629 5633 5637 5642 5647 5651 5656 5660 5664 5669 5673 5677 5680 5683 5686 5689 5692 5695 5698 5700 5703 5705 5707 5709 5712 5714 5716 5718 5720 5722 5724 5725 5727
5620 5618 5617 5615 5615 5616 5617 5618 5620 5623 5626 5630 5633 5637 5641 5645 5649 5653 5657 5660 5664 5667 5670 5673 5676 5679 5681 5684 5687 5689 5692 5694 5696 5698 5700 5702 5704 5706 5708 5710 5712 5714 5715
5622 5620 5618 5617 5617 5616 5617 5619 5621 5623 5625 5627 5630 5633 5637 5640 5643 5647 5650 5653 5655 5658 5660 5663 5666 5668 5671 5673 5676 5678 5680 5682 5684 5686 5688 5690 5692 5694 5696 5698 5700 5702 5704
5624 5622 5620 5619 5619 5618 5618 5619 5621 5622 5623 5625 5627 5630 5632 5635 5638 5640 5643 5646 5648 5650 5652 5654 5656 5658 5660 5662 5664 5666 5668 5670 5672 5674 5676 5678 5680 5681 5683 5685 5687 5689 5691
5625 5623 5622 5621 5620 5620 5620 5621 5621 5622 5622 5623 5624 5626 5628 5630 5633 5635 5637 5639 5640 5642 5643 5645 5646 5648 5649 5651 5652 5654 5656 5657 5659 5661 5662 5664 5666 5668 5670 5672 5674 5676 5677
5627 5625 5624 5623 5622 5622 5621 5621 5621 5621 5621 5621 5621 5622 5623 5625 5626 5628 5629 5630 5632 5632 5633 5634 5635 5636 5637 5639 5640 5641 5643 5644 5646 5647 5649 5651 5652 5654 5656 5657 5659 5661 5663
5628 5626 5625 5624 5623 5622 5622 5621 5620 5619 5619 5619 5618 5618 5619 5619 5619 5620 5621 5621 5622 5622 5622 5623 5623 5624 5625 5625 5626 5627 5628 5630 5631 5633 5635 5637 5638 5640 5641 5643 5645 5646 5647
5629 5627 5625 5624 5623 5622 5621 5619 5618 5617 5617 5616 5615 5614 5614 5613 5613 5612 5612 5612 5611 5611 5610 5610 5610 5611 5611 5611 5611 5612 5613 5614 5616 5617 5619 5621 5622 5624 5625 5627 5629 5630 5632
5629 5626 5624 5623 5621 5620 5618 5617 5616 5614 5613 5611 5610 5608 5607 5606 5604 5603 5602 5601 5600 5598 5598 5597 5597 5597 5596 5596 5596 5597 5598 5599 5600 5601 5603 5604 5605 5607 5608 5610 5611 5613 5615
5628 5626 5623 5621 5619 5618 5616 5614 5612 5610 5608 5605 5603 5600 5598 5596 5594 5592 5590 5588 5587 5585 5584 5583 5582 5581 5581 5580 5580 5580 5581 5582 5583 5584 5585 5586 5587 5588 5590 5591 5593 5595 5597
5626 5624 5621 5619 5616 5614 5611 5609 5606 5604 5601 5598 5595 5592 5589 5586 5582 5580 5577 5575 5572 5570 5568 5566 5565 5564 5563 5562 5562 5561 5562 5562 5563 5564 5565 5567 5568 5569 5570 5572 5574 5576 5578
5623 5621 5618 5615 5613 5610 5607 5604 5601 5597 5594 5590 5586 5582 5578 5575 5571 5567 5563 5560 5557 5554 5551 5548 5546 5545 5543 5542 5541 5540 5541 5542 5542 5543 5544 5545 5547 5549 5550 5552 5555 5558 5560
5620 5617 5614 5611 5608 5605 5601 5598 5594 5590 5585 5581 5576 5571 5567 5562 5558 5553 5549 5544 5540 5537 5534 5530 5527 5525 5523 5521 5519 5518 5518 5519 5521 5522 5522 5524 5526 5528 5529 5531 5535 5538 5541
5615 5612 5609 5605 5602 5598 5594 5590 5585 5581 5576 5570 5565 5559 5554 5549 5544 5538 5533 5528 5523 5519 5515 5512 5508 5504 5501 5498 5496 5494 5493 5494 5496 5498 5500 5502 5503 5506 5509 5511 5515 5519 5522
5610 5606 5603 5599 5595 5591 5586 5581 5576 5571 5565 5559 5553 5547 5541 5534 5528 5522 5516 5510 5504 5499 5494 5490 5486 5482 5478 5474 5472 5470 5469 5469 5471 5474 5476 5479 5481 5484 5488 5491 5494 5498 5502
5604 5600 5596 5591 5587 5582 5577 5572 5566 5560 5554 5547 5540 5533 5526 5518 5511 5504 5497 5491 5484 5478 5473 5468 5464 5460 5455 5452 5449 5448 5447 5447 5448 5451 5453 5456 5458 5462 5466 5470 5474 5478 5482
5596 5592 5588 5583 5578 5572 5567 5561 5555 5548 5541 5533 5526 5518 5510 5502 5494 5486 5478 5471 5464 5458 5452 5447 5442 5438 5434 5430 5428 5427 5427 5427 5428 5429 5432 5434 5437 5441 5445 5449 5454 5459 5464
5588 5584 5579 5574 5568 5562 5556 5549 5542 5535 5527 5518 5510 5502 5493 5485 5478 5469 5461 5453 5446 5438 5433 5427 5422 5418 5415 5411 5408 5407 5407 5406 5407 5409 5412 5415 5418 5421 5425 5430 5435 5440 5446
5579 5574 5569 5564 5558 5551 5545 5537 5529 5521 5513 5504 5495 5487 5478 5470 5462 5454 5446 5436 5429 5421 5414 5408 5404 5400 5397 5394 5391 5389 5388 5387 5388 5390 5393 5396 5399 5403 5407 5412 5417 5422 5429